Location: Newark
(25.0000°N, 73.5000°E)
Time: 05:21:57
(UTC+00:00)

Altair - Pass Details

Date: 04 March 2021
Orbit: 1501 x 1683 km, 47.2° (Epoch: 12 April)

Event Time Altitude Azimuth Distance (km) Brightness Sun altitude
Rises 18:45:30 0° 317° (NW) 4,724 10.3 -69.6°
Enters shadow 18:46:30 - 319° (NW) 4,441 10.2 -69.7°
Reaches altitude 10° 18:48:58 10° 326° (NNW) 3,766 - -69.9°
Maximum altitude 18:57:32 35° 30° (NNE) 2,383 - -70.5°
Drops below altitude 10° 19:06:21 10° 93° (E) 3,888 - -70.9°
Sets 19:09:57 0° 102° (ESE) 4,895 - -71.0°
